Back to catalog

STARLINK-37352

AliveCommunicationsVLEO
NORAD 69524·PAYLOAD·🇺🇸 United States

Launched Jun 12, 2026 from Cape Canaveral Space Force Station

Loading…

Next Passes (next 24 hours)

TLE

FreshSource: CelesTrak SupGP

Epoch: Sep 14, 2026, 15:15 UTC

1 69524C 26133S   26257.63590278 -.00025851  00000+0 -76389-3 0  2578
2 69524  53.1562 256.9529 0001203  88.5706   3.2559 15.34398762    11

Track STARLINK-37352 in real time with AllMySat

Download on the App Store